This is the latest recevied weather packets stored in our database for station/object DC4AT. If no packets are shown the sender has not sent any weather packets the latest 10 day(s).
| Time | Temp. | Humidity | Pressure | Rain* | Wind** | Luminosity | Snow |
|---|---|---|---|---|---|---|---|
| 1787921854 | 23.89° C | 71% | 1008.1 hPa | 0 mm | - | 223 W/m² | - |
| 1787921254 | 23.89° C | 72% | 1008.3 hPa | 0 mm | - | 193 W/m² | - |
| 1787920654 | 23.89° C | 71% | 1008.4 hPa | 0 mm | - | 88 W/m² | - |
| 1787920054 | 23.89° C | 70% | 1008.3 hPa | 0 mm | - | 90 W/m² | - |
| 1787919454 | 23.89° C | 70% | 1008.6 hPa | 0 mm | - | 77 W/m² | - |
| 1787918854 | 23.89° C | 69% | 1008.7 hPa | 0 mm | - | 116 W/m² | - |
| 1787918254 | 23.89° C | 69% | 1008.4 hPa | 0 mm | - | 167 W/m² | - |
| 1787917654 | 23.89° C | 71% | 1008.3 hPa | 0 mm | - | 192 W/m² | - |
| 1787917054 | 23.89° C | 72% | 1008.2 hPa | 0 mm | - | 174 W/m² | - |
| 1787916454 | 23.89° C | 72% | 1008.4 hPa | 0 mm | - | 118 W/m² | - |
| 1787915854 | 23.89° C | 72% | 1008.6 hPa | 0 mm | - | 114 W/m² | - |
| 1787915254 | 23.89° C | 72% | 1008.6 hPa | 0 mm | - | 93 W/m² | - |
| 1787914654 | 23.89° C | 72% | 1008.7 hPa | 0 mm | - | 100 W/m² | - |
| 1787914054 | 23.89° C | 72% | 1008.8 hPa | 0 mm | - | 132 W/m² | - |
| 1787913454 | 23.89° C | 71% | 1008.7 hPa | 0 mm | - | 148 W/m² | - |
| 1787912854 | 24.44° C | 71% | 1008.3 hPa | 0 mm | - | 216 W/m² | - |
| 1787912254 | 23.89° C | 71% | 1008 hPa | 0 mm | - | 269 W/m² | - |
| 1787911654 | 23.89° C | 71% | 1008 hPa | 0 mm | - | 258 W/m² | - |
| 1787911054 | 24.44° C | 70% | 1008.1 hPa | 0 mm | - | 244 W/m² | - |
| 1787910454 | 24.44° C | 72% | 1008 hPa | 0 mm | - | 278 W/m² | - |
| 1787909854 | 23.89° C | 72% | 1008.1 hPa | 0 mm | - | 448 W/m² | - |
| 1787909254 | 23.89° C | 72% | 1007.9 hPa | 0 mm | - | 258 W/m² | - |
| 1787908654 | 23.89° C | 76% | 1007.8 hPa | 0 mm | - | 346 W/m² | - |
| 1787908054 | 23.33° C | 78% | 1007.9 hPa | 0 mm | - | 329 W/m² | - |
| 1787907454 | 23.33° C | 78% | 1008.3 hPa | 0 mm | - | 216 W/m² | - |
* Rain latest hour (hover to see other rain measurements)
** Current wind speed in m/s (hover to see current wind gust speed)